SCP
0 0 0 0 0 0 0 0 0 0 0 0 0 0 0 0 0 0 -0 0 0 -0 -0 0 0 0 0 0 0 0 0 0 0 0 0 0 0 0 0 0 0 0 0 0
0 0 0 0 0 0 0 0 0 0 0 0 -0 0 0 0 0 0 0 0 0 0 -0 0 0 0 0 0 0 0 0 0 0 0 0 0 0 0 0 0 0 0 0 0
0 0 0 0 0 0 0 0 0 0 0 0 0 0 0 0 0 -0 0 0 0 -0 -0 0 0 0 0 0 0 0 0 0 0 0 0 0 0 0 0 0 0 0 0 0
0 0 0 0 0 0 0 0 0 0 -0 -0 -0 0 -0 0 0 0 -0 0 0 0 0 0 0 0 0 0 0 0 0 0 0 0 0 0 -0 -0 -0 -0 -0 0 0 0
0 0 0 0 0 0 0 0 0 0 -0 -0 -0 -0 -0 -0 0 0 0 0 0 0 0 0 0 0 0 0 0 0 0 0 0 0 0 0 0 0 0 0 0 0 0 0
0 0 0 0 0 0 0 0 0 0 -0 -0 -0 0 0 -0 -0 -0 -0 0 0 0 0 0 0 0 0 0 0 0 0 0 0 0 0 0 0 0 0 0 0 0 0 0
0 0 0 0 0 0 0 0 0 0 -0 -0 0 0 -0 -0 -0 -0 -0 0 0 0 0 0 0 0 0 0 0 0 0 0 0 0 0 0 0 0 0 0 0 0 0 0
0 0 0 0 0 0 0 0 0 0 0 0 -0 -0 -0 -0 -0 0 0 0 0 0 0 0 0 0 0 0 0 0 0 0 0 0 0 0 0 0 0 0 0 0 0 0
0 0 0 0 0 0 0 0 0 0 0 -0 -0 -0 -0 0 0 0 0 0 0 0 0 0 0 0 0 0 0 0 0 0 0 0 0 0 0 0 0 0 0 0 0 0
0 0 0 0 0 0 0 0 0 0 0 0 -0 0 0 0 0 0 0 0 0 0 0 0 0 0 0 0 0 0 0 0 0 0 0 0 0 0 0 0 0 0 0 0
0 0 0 0 0 0 0 0 0 0 0 0 -0 0 0 0 0 0 0 0 0 0 0 0 0 0 0 0 0 0 0 0 0 0 0 0 0 0 0 0 0 0 0 0
0 0 0 0 0 0 -0 0 0 0 0 0 0 0 0 0 0 0 0 0 0 0 0 0 0 0 0 0 0 0 0 0 0 0 0 0 0 0 0 0 0 0 0 0
0 0 0 0 0 0 0 0 0 0 0 0 0 0 0 0 0 0 0 0 0 0 0 0 0 0 0 0 0 0 0 0 0 0 0 0 0 0 0 0 0 0 0 0
0 0 0 0 0 0 0 0 0 0 0 0 0 0 0 0 0 0 0 0 0 0 0 0 0 0 0 0 0 0 0 0 0 0 0 0 0 0 0 0 0 0 0 0
0 0 0 0 0 0 0 0 0 0 0 0 0 0 0 0 0 0 0 0 0 0 0 0 0 0 0 0 0 0 0 0 0 0 0 0 0 0 0 0 0 0 0 0
0 0 0 0 0 0 0 0 0 0 0 0 0 0 0 0 0 0 0 0 0 0 0 0 0 0 0 0 0 0 0 0 0 0 0 0 0 0 0 0 0 0 0 0
0 0 0 0 0 0 0 0 0 0 0 0 0 0 0 0 0 0 0 0 0 0 0 0 0 0 0 0 0 0 -0 0 0 0 -0 0 0 0 0 0 0 0 0 0
0 0 0 0 0 0 0 0 0 0 0 0 0 0 0 0 0 0 0 0 0 0 0 0 0 0 0 0 0 0 0 0 0 0 0 0 0 0 0 0 0 0 0 0
0 0 0 0 0 0 0 0 0 0 0 0 0 0 0 0 0 0 0 0 0 0 0 0 0 0 0 0 0 0 0 0 0 0 0 -0 -0 -0 0 0 0 0 0 0
0 0 0 0 0 0 0 0 0 0 0 0 0 0 0 0 0 0 0 0 0 0 0 0 0 0 0 0 0 0 0 -0 0 0 0 0 0 0 0 0 0 0 0 0
0 0 0 0 0 0 0 0 0 0 0 0 0 0 0 0 0 0 0 0 0 0 0 0 0 0 0 0 0 -0 -0 -0 -0 0 0 0 0 -0 0 0 0 0 0 0
-0 -0 -0 -0 0 0 0 0 0 0 0 0 0 0 0 0 0 0 0 0 0 0 0 0 0 0 0 0 0 -0 -0 -0 -0 -0 -0 -0 0 0 -0 -0 0 0 0 0
0 0 0 0 0 0 0 0 0 0 0 0 0 0 0 0 0 0 0 0 0 0 0 0 0 0 0 0 0 -0 -0 -0 -0 -0 -0 -0 -0 -0 -0 -0 -0 0 0 0
0 -0 -0 0 0 0 0 0 0 0 0 0 0 0 0 0 0 0 0 0 0 0 0 0 0 0 0 0 -0 -0 -0 -0 -0 -0 -0 -0 -0 -0 -0 -0 -0 -0 0 0
0 -0 -0 -0 0 0 0 0 0 0 0 0 0 0 0 0 0 0 0 0 0 0 0 0 0 0 0 0 0 0 0 -0 -0 -0 -0 -0 -0 -0 -0 -0 -0 -0 -0 -0
0 -0 -0 -0 -0 -0 0 -0 0 0 0 0 0 0 0 0 0 0 0 0 0 0 0 0 0 0 0 0 -0 -0 -0 -0 -0 -0 -0 -0 -0 -0 -0 -0 -0 -0 0 -0
0 -0 -0 -0 0 0 0 0 0 0 0 0 0 0 0 0 0 0 0 0 0 0 0 0 0 0 0 0 0 0 0 0 -0 0 0 0 0 0 0 0 0 0 0 0
Wind_Speed_500mb
6 13 9 8 14 28 15 12 13 18 12 4 7 17 27 7 47 60 62 73 76 73 66 57 47 37 28 21 18 22 26 29 35 38 40 47 47 47 48 50 52 53 56 57
14 18 17 27 22 15 8 11 15 33 19 7 11 29 24 30 49 49 51 67 64 58 51 43 35 28 21 20 17 19 23 28 29 33 39 43 48 51 52 54 56 58 60 64
3 10 4 14 13 5 4 5 19 13 20 29 8 11 21 44 51 51 57 56 49 43 39 32 25 18 14 11 11 15 20 23 28 34 39 43 48 53 58 63 67 70 72 73
3 8 8 10 7 5 16 12 9 23 38 30 47 26 48 55 57 51 49 48 46 42 35 29 23 19 16 9 13 23 30 36 42 49 54 59 65 71 75 76 75 75 70 66
7 7 6 6 8 1 2 11 14 33 37 37 42 37 20 32 31 34 42 38 39 35 30 24 16 14 14 18 27 36 45 51 56 61 67 70 72 73 71 67 59 56 52 53
6 10 4 8 12 14 5 8 9 28 25 32 48 14 4 30 36 51 54 50 43 33 24 12 7 8 17 25 34 43 51 57 61 65 65 65 59 54 52 48 47 49 46 46
8 7 8 10 20 9 9 13 26 34 48 39 11 27 54 66 62 57 50 41 30 21 11 6 4 12 25 37 46 52 56 58 58 57 52 47 43 44 45 46 47 48 46 44
7 7 4 12 16 1 8 12 48 43 53 69 73 71 70 67 62 50 41 29 18 9 9 13 21 31 42 49 51 53 55 54 48 41 36 35 39 40 45 43 38 41 48 53
3 4 7 27 21 24 40 55 45 68 74 86 79 71 67 58 48 38 27 18 11 11 19 28 38 46 48 50 52 52 48 42 34 27 29 33 36 40 34 37 45 51 55 53
10 13 21 44 58 57 61 73 70 75 75 77 81 67 58 48 38 27 19 11 15 23 33 39 43 44 45 46 44 39 32 26 22 23 27 35 34 31 34 41 45 46 45 50
23 21 53 51 55 62 71 70 71 65 63 63 59 49 43 35 24 16 12 14 21 30 36 42 42 42 41 37 31 24 24 23 23 28 31 30 26 28 32 31 35 39 40 46
7 14 35 29 45 55 65 63 57 55 50 43 36 36 24 19 11 8 13 19 27 34 40 41 40 38 33 28 21 20 22 23 29 28 27 26 19 27 23 25 26 32 33 39
16 47 57 55 57 53 52 43 39 36 34 32 26 18 12 8 6 13 20 26 32 40 42 40 37 30 24 19 16 19 21 21 24 21 22 24 26 34 39 28 33 32 35 36
51 58 40 36 41 41 41 38 31 31 28 24 18 11 4 5 12 19 25 32 38 40 38 35 28 22 17 13 14 17 18 20 23 20 17 19 26 30 31 35 46 48 44 45
39 42 52 49 42 38 31 26 22 21 17 11 6 2 9 16 23 28 33 37 37 35 32 26 19 16 11 8 12 14 17 19 23 21 19 12 20 27 30 35 41 43 49 47
42 43 42 39 34 26 19 14 9 9 3 2 9 15 21 27 33 38 38 34 28 25 21 17 14 11 5 6 8 10 15 20 21 23 20 14 17 23 32 35 36 40 46 52
37 29 26 27 19 12 6 2 5 8 11 14 19 22 28 36 40 34 26 22 19 16 12 11 10 5 2 4 4 11 14 19 19 19 19 20 14 18 26 29 32 37 41 42
25 21 16 12 8 4 5 10 12 15 18 22 25 28 36 38 25 15 10 8 7 6 6 6 5 1 1 2 4 6 13 18 15 15 18 20 17 19 23 27 32 35 41 39
17 14 12 10 11 13 13 14 16 17 18 20 24 29 31 12 7 5 3 6 5 5 6 6 3 4 4 5 6 6 11 13 11 11 16 19 19 20 23 27 32 36 39 42
17 12 8 10 12 14 14 14 15 17 20 22 23 20 4 1 8 13 12 9 8 6 5 4 6 9 11 9 8 9 12 12 14 17 18 20 24 25 27 30 33 35 38 40
14 13 12 12 11 9 7 8 12 13 14 9 3 9 17 18 17 14 12 11 14 12 14 16 17 20 19 18 18 20 21 24 25 25 25 27 27 31 33 36 38 38 37 37
21 18 16 15 11 9 8 6 5 5 5 11 18 18 18 19 19 18 19 21 20 21 23 24 26 25 25 25 27 29 31 32 35 34 34 34 36 38 40 40 41 42 43 42
19 15 12 13 11 10 9 8 11 9 12 18 18 18 19 21 25 31 29 21 21 21 25 28 27 26 28 31 32 35 36 36 39 40 39 38 40 40 41 43 45 46 45 47
21 15 17 21 19 12 12 13 12 13 17 19 19 22 28 30 31 25 22 19 21 24 31 32 32 33 32 33 35 36 37 38 39 40 40 40 41 42 44 45 47 47 48 50
18 16 12 13 12 17 12 13 14 15 19 20 19 23 23 22 24 19 16 23 27 31 37 36 36 37 39 40 41 42 42 42 41 41 43 45 46 46 47 47 49 50 52 55
16 21 18 19 19 13 20 16 19 19 22 22 23 24 23 20 18 17 22 29 33 35 38 36 34 33 33 34 36 38 39 39 39 41 42 43 43 44 45 45 47 49 50 51
16 23 32 34 29 28 20 19 14 17 19 21 22 21 20 20 22 23 24 29 30 30 30 31 30 32 33 33 35 36 37 38 39 39 40 41 42 43 43 44 45 46 47 49
Wind_Direction_500mb
17 38 109 107 173 172 171 186 156 188 132 329 34 57 349 243 118 115 120 127 135 130 125 120 116 109 99 78 38 13 359 350 346 341 332 328 323 319 316 311 308 306 305 302
30 13 105 79 44 92 120 134 80 114 97 187 54 64 312 137 113 109 112 123 123 122 121 122 117 105 78 55 30 9 354 344 337 329 325 323 318 315 311 308 305 302 299 298
338 328 351 38 1 1 118 91 139 165 155 136 172 185 122 103 110 115 121 125 126 122 117 114 102 88 77 58 25 348 341 334 327 320 317 315 313 311 309 308 307 305 304 301
146 14 57 247 287 207 110 63 111 128 152 149 160 140 98 112 120 125 130 128 126 122 117 113 114 102 89 50 358 346 336 330 325 322 319 319 317 316 315 314 315 314 313 313
97 64 266 20 348 343 200 17 140 136 146 150 135 119 93 120 119 127 129 130 127 126 126 122 99 53 353 337 338 331 328 324 320 318 318 318 317 316 316 317 319 319 324 326
32 88 146 255 329 72 341 42 176 151 144 148 145 126 61 159 175 141 137 139 140 138 134 121 53 332 326 328 330 329 326 324 322 321 320 321 323 327 329 332 334 331 335 334
86 107 283 261 308 314 97 224 156 151 134 133 99 127 135 139 135 139 139 138 136 136 131 107 11 340 332 335 331 328 324 324 325 327 330 335 341 342 346 341 338 341 346 347
82 91 250 28 318 61 205 123 138 140 134 113 117 129 134 134 134 135 131 125 114 95 47 11 352 340 333 329 327 326 326 327 331 335 341 348 348 350 345 344 355 357 356 352
142 150 350 58 94 102 120 110 115 122 126 134 130 130 135 128 126 123 123 117 89 20 359 348 337 330 327 324 324 326 328 332 339 349 356 353 353 355 353 356 357 352 353 354
75 10 71 70 84 91 108 113 124 129 132 139 133 134 128 127 125 127 119 81 23 356 343 337 333 331 329 328 328 332 339 346 350 359 4 359 359 350 352 356 352 349 352 354
101 114 78 66 74 92 101 114 119 124 129 131 132 127 126 124 122 107 65 15 350 343 341 338 334 331 329 329 333 344 353 354 360 4 7 3 353 1 357 357 2 359 355 346
97 84 101 80 99 107 106 111 118 123 122 122 123 121 126 118 99 37 353 345 340 338 334 333 331 329 331 335 344 359 358 359 1 7 4 350 0 354 18 19 6 352 338 330
106 106 103 113 116 117 118 121 117 113 113 118 118 118 110 80 18 340 334 332 330 331 332 330 328 329 332 342 0 2 354 356 357 358 352 357 344 4 358 11 7 360 355 350
102 110 96 113 112 116 116 118 121 123 125 123 121 122 89 334 319 313 316 321 324 325 326 325 324 327 339 358 0 1 352 358 347 347 349 355 338 354 351 345 347 349 359 358
101 107 114 120 117 114 115 118 112 107 109 113 113 322 309 307 309 310 312 313 314 315 320 319 321 328 342 351 12 359 350 348 341 339 333 332 332 333 336 336 345 345 351 0
114 113 118 115 114 117 122 117 114 115 122 323 311 305 304 305 307 307 307 305 303 305 308 311 319 334 327 13 5 352 353 341 346 347 342 313 310 317 326 335 351 357 358 358
120 98 100 100 102 102 88 36 301 293 297 304 306 306 307 308 308 303 297 291 298 303 306 315 323 319 309 6 24 10 350 351 353 352 356 359 346 345 352 1 359 4 4 9
100 96 85 77 74 41 312 294 292 293 297 298 299 304 308 309 301 298 298 300 315 333 344 343 334 229 2 53 49 8 337 347 356 2 19 19 21 9 10 14 8 10 13 23
83 62 41 18 356 333 317 304 300 300 297 294 298 303 308 306 307 326 82 86 86 58 15 12 82 72 94 79 47 7 342 358 14 31 41 39 33 26 26 26 25 20 19 27
72 46 16 337 319 308 302 289 286 291 293 297 300 297 285 35 108 106 100 77 47 14 352 54 95 105 92 76 58 47 38 55 64 67 64 58 52 44 42 40 38 32 30 29
49 15 359 350 344 335 311 292 292 296 299 294 176 125 122 116 112 112 107 84 82 86 94 103 107 98 95 94 93 84 81 84 80 75 71 67 61 54 50 47 45 43 42 39
19 10 6 4 359 358 1 334 315 303 115 125 124 117 121 116 116 107 97 97 97 102 108 108 103 101 102 100 94 92 88 87 85 81 76 71 66 60 56 54 52 47 46 44
30 20 21 26 24 30 42 83 106 94 119 124 113 117 126 127 123 115 109 111 118 117 113 105 101 101 100 99 97 93 91 88 83 78 74 69 65 61 59 56 53 51 47 45
50 68 74 57 49 52 74 96 100 104 118 128 119 123 128 124 118 117 112 120 117 106 100 100 101 100 101 98 96 93 88 85 82 79 76 72 68 65 61 56 53 51 48 46
63 93 81 59 55 55 87 109 123 125 126 127 122 127 131 128 119 122 111 114 111 105 100 99 100 100 97 95 93 91 87 83 80 78 74 71 67 63 60 57 54 51 49 45
77 97 93 64 54 69 77 128 124 132 137 128 122 124 126 127 125 123 101 99 102 105 104 103 100 96 93 92 89 88 85 82 78 73 69 66 63 60 57 54 52 49 47 45
126 109 102 92 79 75 82 92 109 136 142 143 132 131 129 121 114 109 110 114 111 109 105 101 98 95 92 89 86 83 80 76 72 69 66 63 60 57 54 52 51 48 45 41
Wind_Speed_850mb
6 13 9 8 14 28 15 12 13 18 12 4 7 17 27 7 47 60 62 73 76 73 66 57 47 37 28 21 18 22 26 29 35 38 40 47 47 47 48 50 52 53 56 57
14 18 17 27 22 15 8 11 15 33 19 7 11 29 24 30 49 49 51 67 64 58 51 43 35 28 21 20 17 19 23 28 29 33 39 43 48 51 52 54 56 58 60 64
3 10 4 14 13 5 4 5 19 13 20 29 8 11 21 44 51 51 57 56 49 43 39 32 25 18 14 11 11 15 20 23 28 34 39 43 48 53 58 63 67 70 72 73
3 8 8 10 7 5 16 12 9 23 38 30 47 26 48 55 57 51 49 48 46 42 35 29 23 19 16 9 13 23 30 36 42 49 54 59 65 71 75 76 75 75 70 66
7 7 6 6 8 1 2 11 14 33 37 37 42 37 20 32 31 34 42 38 39 35 30 24 16 14 14 18 27 36 45 51 56 61 67 70 72 73 71 67 59 56 52 53
6 10 4 8 12 14 5 8 9 28 25 32 48 14 4 30 36 51 54 50 43 33 24 12 7 8 17 25 34 43 51 57 61 65 65 65 59 54 52 48 47 49 46 46
8 7 8 10 20 9 9 13 26 34 48 39 11 27 54 66 62 57 50 41 30 21 11 6 4 12 25 37 46 52 56 58 58 57 52 47 43 44 45 46 47 48 46 44
7 7 4 12 16 1 8 12 48 43 53 69 73 71 70 67 62 50 41 29 18 9 9 13 21 31 42 49 51 53 55 54 48 41 36 35 39 40 45 43 38 41 48 53
3 4 7 27 21 24 40 55 45 68 74 86 79 71 67 58 48 38 27 18 11 11 19 28 38 46 48 50 52 52 48 42 34 27 29 33 36 40 34 37 45 51 55 53
10 13 21 44 58 57 61 73 70 75 75 77 81 67 58 48 38 27 19 11 15 23 33 39 43 44 45 46 44 39 32 26 22 23 27 35 34 31 34 41 45 46 45 50
23 21 53 51 55 62 71 70 71 65 63 63 59 49 43 35 24 16 12 14 21 30 36 42 42 42 41 37 31 24 24 23 23 28 31 30 26 28 32 31 35 39 40 46
7 14 35 29 45 55 65 63 57 55 50 43 36 36 24 19 11 8 13 19 27 34 40 41 40 38 33 28 21 20 22 23 29 28 27 26 19 27 23 25 26 32 33 39
16 47 57 55 57 53 52 43 39 36 34 32 26 18 12 8 6 13 20 26 32 40 42 40 37 30 24 19 16 19 21 21 24 21 22 24 26 34 39 28 33 32 35 36
51 58 40 36 41 41 41 38 31 31 28 24 18 11 4 5 12 19 25 32 38 40 38 35 28 22 17 13 14 17 18 20 23 20 17 19 26 30 31 35 46 48 44 45
39 42 52 49 42 38 31 26 22 21 17 11 6 2 9 16 23 28 33 37 37 35 32 26 19 16 11 8 12 14 17 19 23 21 19 12 20 27 30 35 41 43 49 47
42 43 42 39 34 26 19 14 9 9 3 2 9 15 21 27 33 38 38 34 28 25 21 17 14 11 5 6 8 10 15 20 21 23 20 14 17 23 32 35 36 40 46 52
37 29 26 27 19 12 6 2 5 8 11 14 19 22 28 36 40 34 26 22 19 16 12 11 10 5 2 4 4 11 14 19 19 19 19 20 14 18 26 29 32 37 41 42
25 21 16 12 8 4 5 10 12 15 18 22 25 28 36 38 25 15 10 8 7 6 6 6 5 1 1 2 4 6 13 18 15 15 18 20 17 19 23 27 32 35 41 39
17 14 12 10 11 13 13 14 16 17 18 20 24 29 31 12 7 5 3 6 5 5 6 6 3 4 4 5 6 6 11 13 11 11 16 19 19 20 23 27 32 36 39 42
17 12 8 10 12 14 14 14 15 17 20 22 23 20 4 1 8 13 12 9 8 6 5 4 6 9 11 9 8 9 12 12 14 17 18 20 24 25 27 30 33 35 38 40
14 13 12 12 11 9 7 8 12 13 14 9 3 9 17 18 17 14 12 11 14 12 14 16 17 20 19 18 18 20 21 24 25 25 25 27 27 31 33 36 38 38 37 37
21 18 16 15 11 9 8 6 5 5 5 11 18 18 18 19 19 18 19 21 20 21 23 24 26 25 25 25 27 29 31 32 35 34 34 34 36 38 40 40 41 42 43 42
19 15 12 13 11 10 9 8 11 9 12 18 18 18 19 21 25 31 29 21 21 21 25 28 27 26 28 31 32 35 36 36 39 40 39 38 40 40 41 43 45 46 45 47
21 15 17 21 19 12 12 13 12 13 17 19 19 22 28 30 31 25 22 19 21 24 31 32 32 33 32 33 35 36 37 38 39 40 40 40 41 42 44 45 47 47 48 50
18 16 12 13 12 17 12 13 14 15 19 20 19 23 23 22 24 19 16 23 27 31 37 36 36 37 39 40 41 42 42 42 41 41 43 45 46 46 47 47 49 50 52 55
16 21 18 19 19 13 20 16 19 19 22 22 23 24 23 20 18 17 22 29 33 35 38 36 34 33 33 34 36 38 39 39 39 41 42 43 43 44 45 45 47 49 50 51
16 23 32 34 29 28 20 19 14 17 19 21 22 21 20 20 22 23 24 29 30 30 30 31 30 32 33 33 35 36 37 38 39 39 40 41 42 43 43 44 45 46 47 49
Wind_Direction_850mb
17 38 109 107 173 172 171 186 156 188 132 329 34 57 349 243 118 115 120 127 135 130 125 120 116 109 99 78 38 13 359 350 346 341 332 328 323 319 316 311 308 306 305 302
30 13 105 79 44 92 120 134 80 114 97 187 54 64 312 137 113 109 112 123 123 122 121 122 117 105 78 55 30 9 354 344 337 329 325 323 318 315 311 308 305 302 299 298
338 328 351 38 1 1 118 91 139 165 155 136 172 185 122 103 110 115 121 125 126 122 117 114 102 88 77 58 25 348 341 334 327 320 317 315 313 311 309 308 307 305 304 301
146 14 57 247 287 207 110 63 111 128 152 149 160 140 98 112 120 125 130 128 126 122 117 113 114 102 89 50 358 346 336 330 325 322 319 319 317 316 315 314 315 314 313 313
97 64 266 20 348 343 200 17 140 136 146 150 135 119 93 120 119 127 129 130 127 126 126 122 99 53 353 337 338 331 328 324 320 318 318 318 317 316 316 317 319 319 324 326
32 88 146 255 329 72 341 42 176 151 144 148 145 126 61 159 175 141 137 139 140 138 134 121 53 332 326 328 330 329 326 324 322 321 320 321 323 327 329 332 334 331 335 334
86 107 283 261 308 314 97 224 156 151 134 133 99 127 135 139 135 139 139 138 136 136 131 107 11 340 332 335 331 328 324 324 325 327 330 335 341 342 346 341 338 341 346 347
82 91 250 28 318 61 205 123 138 140 134 113 117 129 134 134 134 135 131 125 114 95 47 11 352 340 333 329 327 326 326 327 331 335 341 348 348 350 345 344 355 357 356 352
142 150 350 58 94 102 120 110 115 122 126 134 130 130 135 128 126 123 123 117 89 20 359 348 337 330 327 324 324 326 328 332 339 349 356 353 353 355 353 356 357 352 353 354
75 10 71 70 84 91 108 113 124 129 132 139 133 134 128 127 125 127 119 81 23 356 343 337 333 331 329 328 328 332 339 346 350 359 4 359 359 350 352 356 352 349 352 354
101 114 78 66 74 92 101 114 119 124 129 131 132 127 126 124 122 107 65 15 350 343 341 338 334 331 329 329 333 344 353 354 360 4 7 3 353 1 357 357 2 359 355 346
97 84 101 80 99 107 106 111 118 123 122 122 123 121 126 118 99 37 353 345 340 338 334 333 331 329 331 335 344 359 358 359 1 7 4 350 0 354 18 19 6 352 338 330
106 106 103 113 116 117 118 121 117 113 113 118 118 118 110 80 18 340 334 332 330 331 332 330 328 329 332 342 0 2 354 356 357 358 352 357 344 4 358 11 7 360 355 350
102 110 96 113 112 116 116 118 121 123 125 123 121 122 89 334 319 313 316 321 324 325 326 325 324 327 339 358 0 1 352 358 347 347 349 355 338 354 351 345 347 349 359 358
101 107 114 120 117 114 115 118 112 107 109 113 113 322 309 307 309 310 312 313 314 315 320 319 321 328 342 351 12 359 350 348 341 339 333 332 332 333 336 336 345 345 351 0
114 113 118 115 114 117 122 117 114 115 122 323 311 305 304 305 307 307 307 305 303 305 308 311 319 334 327 13 5 352 353 341 346 347 342 313 310 317 326 335 351 357 358 358
120 98 100 100 102 102 88 36 301 293 297 304 306 306 307 308 308 303 297 291 298 303 306 315 323 319 309 6 24 10 350 351 353 352 356 359 346 345 352 1 359 4 4 9
100 96 85 77 74 41 312 294 292 293 297 298 299 304 308 309 301 298 298 300 315 333 344 343 334 229 2 53 49 8 337 347 356 2 19 19 21 9 10 14 8 10 13 23
83 62 41 18 356 333 317 304 300 300 297 294 298 303 308 306 307 326 82 86 86 58 15 12 82 72 94 79 47 7 342 358 14 31 41 39 33 26 26 26 25 20 19 27
72 46 16 337 319 308 302 289 286 291 293 297 300 297 285 35 108 106 100 77 47 14 352 54 95 105 92 76 58 47 38 55 64 67 64 58 52 44 42 40 38 32 30 29
49 15 359 350 344 335 311 292 292 296 299 294 176 125 122 116 112 112 107 84 82 86 94 103 107 98 95 94 93 84 81 84 80 75 71 67 61 54 50 47 45 43 42 39
19 10 6 4 359 358 1 334 315 303 115 125 124 117 121 116 116 107 97 97 97 102 108 108 103 101 102 100 94 92 88 87 85 81 76 71 66 60 56 54 52 47 46 44
30 20 21 26 24 30 42 83 106 94 119 124 113 117 126 127 123 115 109 111 118 117 113 105 101 101 100 99 97 93 91 88 83 78 74 69 65 61 59 56 53 51 47 45
50 68 74 57 49 52 74 96 100 104 118 128 119 123 128 124 118 117 112 120 117 106 100 100 101 100 101 98 96 93 88 85 82 79 76 72 68 65 61 56 53 51 48 46
63 93 81 59 55 55 87 109 123 125 126 127 122 127 131 128 119 122 111 114 111 105 100 99 100 100 97 95 93 91 87 83 80 78 74 71 67 63 60 57 54 51 49 45
77 97 93 64 54 69 77 128 124 132 137 128 122 124 126 127 125 123 101 99 102 105 104 103 100 96 93 92 89 88 85 82 78 73 69 66 63 60 57 54 52 49 47 45
126 109 102 92 79 75 82 92 109 136 142 143 132 131 129 121 114 109 110 114 111 109 105 101 98 95 92 89 86 83 80 76 72 69 66 63 60 57 54 52 51 48 45 41